This is the latest recevied weather packets stored in our database for station/object DG7FDL-7. If no packets are shown the sender has not sent any weather packets the latest 10 day(s).
| Time | Temp. | Humidity | Pressure | Rain* | Wind** | Luminosity | Snow |
|---|---|---|---|---|---|---|---|
| 1777626304 | 20.56° C | 34% | 1029.4 hPa | - | - | - | - |
| 1777625404 | 20.56° C | 34% | 1029.3 hPa | - | - | - | - |
| 1777623627 | 20.56° C | 34% | 1029.5 hPa | - | - | - | - |
| 1777622703 | 20° C | 34% | 1029.7 hPa | - | - | - | - |
| 1777620902 | 18.89° C | 34% | 1029.8 hPa | - | - | - | - |
| 1777620016 | 19.44° C | 34% | 1029.9 hPa | - | - | - | - |
| 1777619104 | 20° C | 33% | 1030 hPa | - | - | - | - |
| 1777618213 | 18.89° C | 35% | 1030 hPa | - | - | - | - |
| 1777617302 | 17.78° C | 36% | 1029.9 hPa | - | - | - | - |
| 1777616402 | 17.78° C | 35% | 1029.9 hPa | - | - | - | - |
| 1777615502 | 18.33° C | 35% | 1029.9 hPa | - | - | - | - |
| 1777614602 | 18.33° C | 35% | 1029.9 hPa | - | - | - | - |
| 1777613702 | 18.33° C | 35% | 1029.8 hPa | - | - | - | - |
| 1777612804 | 18.33° C | 35% | 1029.8 hPa | - | - | - | - |
| 1777611898 | 18.33° C | 34% | 1029.8 hPa | - | - | - | - |
| 1777611012 | 18.89° C | 33% | 1029.7 hPa | - | - | - | - |
| 1777610106 | 18.89° C | 34% | 1029.7 hPa | - | - | - | - |
| 1777609197 | 18.33° C | 34% | 1029.8 hPa | - | - | - | - |
| 1777608297 | 18.33° C | 34% | 1029.8 hPa | - | - | - | - |
| 1777607404 | 18.33° C | 34% | 1029.6 hPa | - | - | - | - |
| 1777606497 | 18.33° C | 34% | 1029.5 hPa | - | - | - | - |
| 1777605597 | 18.89° C | 34% | 1029.5 hPa | - | - | - | - |
| 1777604697 | 19.44° C | 33% | 1029.5 hPa | - | - | - | - |
| 1777603797 | 20° C | 32% | 1029.5 hPa | - | - | - | - |
| 1777602897 | 18.33° C | 35% | 1029.6 hPa | - | - | - | - |
* Rain since midnight (hover to see other rain measurements)
** Current wind speed in m/s (hover to see current wind gust speed)